DMSP 5D-2 F12 DEB

Satellite information

Favourite Embed

Satellite Type and Status

DEBRISIN ORBIT

Key statistics

Satellite DMSP 5D-2 F12 DEB at a glance.

Uptime

11325

Days in orbit

Revolutions

≈ 14.3

Per day

Orbit

SSO

Sun Synchronous Orbit

Inclination

98.9

Latest

Satellite identification and parameters

Extended collection of information and parameters for DMSP 5D-2 F12 DEB.

Object identification

Identified? True

Debris? True

Object name: DMSP 5D-2 F12 DEB

International designator: 1994-057F

Object number (NORAD): 41835

Object ID (CCSDS): 41835

Country: UNITED STATES OF AMERICA (US)

Current information (Y/N): Y

RCS size: MEDIUM

Orbital parameters

Period: 100.902 minutes

Inclination: 98.9159 deg

SMA: 7179.466 km

Apoapsis: 814.151 km

Periapsis: 788.51 km

RAAN: 345.4595 deg

Eccentricy: 0.00178578

Argument of periapsis: 1.991 deg

Mean anomaly: 358.1338 deg

Mean motion: 14.27133472 rev/day

Mean motion (dot): 0.00002873 rev/day2

B* drag term: 0.0011944852 1/REarth

Two-line elements (TLE)

Creation date: Aug. 31, 2025, 2:26 a.m.

Reference frame: TEME

Reference center: EARTH

Epoch: Aug. 30, 2025, 9:23 p.m. UTC

TLE line 0: 0 DMSP 5D-2 F12 DEB

TLE line 1: 1 41835U 94057F 25242.89130734 .00002873 00000-0 11945-2 0 9998

TLE line 2: 2 41835 98.9159 345.4595 0017858 1.9910 358.1338 14.27133472458640

Live tracking on map

Real-time ground track for satellite DMSP 5D-2 F12 DEB.

In-orbit conjunctions

A list of the most updated potential collisions computed for object DMSP 5D-2 F12 DEB.

Target Orbit TCA Probability of collision Miss distance Type
IRIDIUM 33 DEB LEO 2025-06-22 16:54:57 0.00106711 48.0 (m) DEBRIS
METEOR 1-16 LEO 2024-11-19 05:53:06 0.003726895 61.0 (m) PAYLOAD
NOAA 16 DEB SSO 2024-11-15 02:27:23 0.0001722691 901.0 (m) DEBRIS

Associated space launch

Military meteorological satellite

DMSP 5D-2 F12 DEB was lifted into orbit during the mission ‘Atlas E | DMSP-5D2 F12’, on board a Atlas E space rocket.

The launch took place on Aug. 29, 1994, 5:38 p.m. from Space Launch Complex 3W.

For more information about the launch, click the button.

Launch to space Atlas E | DMSP-5D2 F12
Atlas E | DMSP-5D2 F12

Agency: N/A

Status: Launch Successful

Launch date: Aug. 29, 1994, 5:38 p.m. UTC

Rocket: Atlas E

Launch pad: Space Launch Complex 3W

Location: Vandenberg SFB, CA, USA

...

Latest news about this satellite

There are no fresh news available about this satellite. Check back as we update our databases every day.


Newsletter sign-up

Weekly statistics, charts and insights to help you stay on top of the space industry.